GW1538 Weather Reports


time (UTC)temp
C
wind
direction
speed
KPH
gust
KPH
rain 1hr
cm
rain 24hr
cm
rain mn
cm
humidity
%
barometer
mb
20260507084550 7 264 9.7 16.1 0.13 1.09 0.74 94 1013.0
20260507083046 7 272 11.3 17.7 0.15 1.07 0.71 92 1012.8
20260507080036 6 253 1.6 12.9 0.15 0.99 0.66 91 1012.7
20260507073050 6 321 3.2 11.3 0.15 0.94 0.58 89 1012.5
20260507071535 6 340 1.6 9.7 0.15 0.89 0.53 91 1012.4
20260507064539 5 291 6.4 11.3 0.18 0.81 0.46 96 1012.2
20260507061601 5 134 0.0 0.0 0.15 0.74 0.38 93 1012.3
20260507054535 1 134 0.0 0.0 0.08 0.66 0.28 93 1012.0
20260507051543 0 134 0.0 0.0 0.08 0.61 0.23 95 1011.4
20260507050032 0 134 0.0 0.0 0.10 0.61 0.23 95 1011.1
20260507043042 0 134 0.0 0.0 0.08 0.58 0.18 96 1011.0
20260507041542 0 134 0.0 0.0 0.08 0.56 0.15 96 1010.9
20260507034607 0 134 0.0 3.2 0.03 0.51 0.10 96 1010.6
20260507033052 0 138 0.0 3.2 0.05 0.51 0.10 96 1010.6
20260507031549 0 138 0.0 0.0 0.03 0.48 0.08 96 1010.6
20260507030030 0 138 0.0 1.6 0.03 0.48 0.08 96 1010.5
20260507023032 0 138 0.0 3.2 0.00 0.48 0.05 96 1010.5
20260507021530 0 131 0.0 3.2 0.03 0.48 0.05 96 1010.5
20260507014559 1 137 3.2 6.4 0.03 0.51 0.05 96 1010.4
20260507013032 1 108 0.0 4.8 0.03 0.51 0.05 97 1010.6
20260507010053 2 123 4.8 16.1 0.00 0.48 0.05 94 1010.6
20260507004539 2 120 1.6 8.0 0.03 0.48 0.05 97 1010.6
20260507001544 2 237 1.6 12.9 0.03 0.48 0.05 96 1010.7
20260506234546 2 199 1.6 11.3 0.03 0.48 0.03 97 1010.7
20260506233049 3 91 4.8 16.1 0.03 0.48 0.03 96 1010.6
20260506231541 3 180 3.2 12.9 0.03 0.48 0.03 96 1010.9
20260506224542 5 235 1.6 6.4 0.00 0.48 0.00 96 1011.0
20260506223035 4 134 0.0 6.4 0.03 0.48 0.00 96 1011.0
20260506220121 5 85 0.0 6.4 0.03 0.48 0.00 96 1011.1
20260506213041 5 119 1.6 12.9 0.03 0.48 0.46 95 1011.1
20260506210055 5 54 1.6 4.8 0.03 0.48 0.46 95 1011.0
20260506204559 5 257 0.0 11.3 0.03 0.51 0.46 95 1010.8
20260506201547 5 135 1.6 9.7 0.03 0.48 0.43 95 1010.9
20260506194558 5 115 4.8 12.9 0.03 0.51 0.43 95 1010.5
20260506193044 5 69 4.8 8.0 0.03 0.48 0.43 96 1010.4
20260506191541 5 287 12.9 27.4 0.03 0.48 0.43 96 1010.3
20260506184552 5 131 6.4 12.9 0.03 0.51 0.43 96 1010.0
20260506183044 5 125 4.8 12.9 0.05 0.51 0.41 96 1009.9
20260506173104 6 83 0.0 8.0 0.03 0.48 0.38 96 1009.7
20260506171532 6 111 1.6 11.3 0.05 0.48 0.38 96 1009.4
20260506170034 7 291 3.2 9.7 0.03 0.46 0.36 96 1009.3
20260506163105 6 268 3.2 12.9 0.05 0.48 0.36 96 1009.3
20260506161542 6 111 3.2 12.9 0.03 0.46 0.33 96 1009.2
20260506160034 7 120 3.2 12.9 0.03 0.46 0.33 96 1009.4
20260506154523 7 255 9.7 19.3 0.05 0.51 0.33 96 1009.3
20260506151557 7 131 0.0 9.7 0.03 0.48 0.33 96 1009.3
20260506150047 6 125 4.8 12.9 0.03 0.48 0.30 96 1009.5
20260506143053 5 147 3.2 11.3 0.03 0.51 0.30 94 1009.5
20260506141551 5 34 4.8 12.9 0.03 0.51 0.30 95 1009.7
20260506140044 5 349 1.6 14.5 0.05 0.51 0.30 95 1009.6
20260506133032 5 95 6.4 19.3 0.03 0.51 0.28 94 1009.8
20260506130051 6 252 4.8 19.3 0.03 0.51 0.25 93 1009.8
20260506123052 6 152 6.4 25.7 0.05 0.53 0.25 93 1009.8
20260506121542 6 121 4.8 16.1 0.03 0.51 0.23 93 1010.0
20260506114551 6 218 6.4 16.1 0.03 0.56 0.23 93 1010.0
20260506113041 6 135 8.0 16.1 0.03 0.53 0.23 93 1010.0
20260506111533 6 124 8.0 16.1 0.03 0.53 0.23 93 1010.2
20260506110031 6 163 4.8 17.7 0.03 0.53 0.23 93 1010.4
20260506103059 6 107 4.8 17.7 0.03 0.58 0.20 93 1010.6
20260506101541 6 137 4.8 14.5 0.03 0.58 0.20 93 1010.6
20260506100039 5 111 4.8 14.5 0.05 0.58 0.20 93 1010.6
20260506093107 5 110 12.9 22.5 0.03 0.58 0.18 93 1010.5
20260506091538 5 109 8.0 16.1 0.03 0.58 0.18 94 1010.7